Location: Unspecified
(0.0000°N, 0.0000°E)
Time: 08:16:33
(UTC+00:00)

Tiros 1 despin weight - All Passes

Search period start: 02 May 2016 00:00
Search period end: 12 May 2016 00:00
Orbit: 596 x 645 km, 48.2° (Epoch: 30 April)

Date Brightness Start Highest point End Pass type
(mag) Time Alt. Az. Time Alt. Az. Time Alt. Az.
02 May - 06:00:04 10° SSW 06:04:29 47° SE 06:08:50 10° NE daylight
02 May - 07:43:56 10° WNW 07:45:56 13° NW 07:47:56 10° NNW daylight
02 May - 18:08:21 10° NW 18:12:50 80° NE 18:17:27 10° SE daylight
03 May - 04:39:27 10° SE 04:40:13 10° SE 04:40:58 10° ESE visible
03 May - 06:17:13 10° SW 06:21:46 60° NW 06:26:13 10° NNE daylight
03 May - 16:45:51 10° N 16:48:42 17° NE 16:51:36 10° E daylight
03 May - 18:26:00 10° WNW 18:30:08 35° SW 18:34:21 10° SSE visible
04 May - 04:53:39 10° S 04:57:36 27° SE 05:01:29 10° ENE visible
04 May - 06:35:31 10° W 06:39:02 22° NW 06:42:30 10° N daylight
04 May - 17:01:43 10° NNW 17:06:00 44° NE 17:10:21 10° SE daylight
04 May - 18:45:16 10° W 18:47:30 13° SW 18:49:45 10° SSW visible
05 May - 05:10:16 10° SW 05:14:53 78° SE 05:19:26 10° NE visible
05 May - 17:18:50 10° NW 17:23:15 62° SW 17:27:46 10° SSE daylight
06 May - 03:47:41 10° S 03:50:40 17° SE 03:53:38 10° E visible
06 May - 05:27:54 10° WSW 05:32:09 36° NW 05:36:20 10° NNE visible
06 May - 15:55:24 10° N 15:59:07 26° NE 16:02:53 10° ESE daylight
06 May - 17:37:03 10° WNW 17:40:33 22° SW 17:44:08 10° S daylight
07 May - 04:03:34 10° SSW 04:08:00 44° SE 04:12:21 10° ENE visible
07 May - 05:47:06 10° W 05:49:27 14° NW 05:51:48 10° NNW daylight
07 May - 16:11:57 10° NW 16:16:23 75° NE 16:20:55 10° SE daylight
08 May - 04:20:40 10° SW 04:25:16 64° NW 04:29:48 10° NNE visible
08 May - 14:49:36 10° NNE 14:52:14 15° NE 14:54:52 10° E daylight
08 May - 16:29:31 10° WNW 16:33:39 37° SW 16:37:52 10° SSE daylight
09 May - 02:57:10 10° S 03:01:05 26° SE 03:04:57 10° ENE visible
09 May - 04:38:50 10° WSW 04:42:32 23° NW 04:46:10 10° N visible
09 May - 15:05:20 10° NNW 15:09:31 41° NE 15:13:46 10° ESE daylight
09 May - 16:48:37 10° W 16:51:00 14° SW 16:53:23 10° SSW daylight
10 May - 03:13:42 10° SSW 03:18:22 73° SE 03:22:57 10° NE visible
10 May - 15:22:21 10° NW 15:26:46 66° SW 15:31:15 10° SSE daylight
11 May - 01:51:15 10° SSE 01:54:08 16° SE 01:56:59 10° E night (unlit)
11 May - 03:31:16 10° WSW 03:35:38 39° NW 03:39:55 10° NNE visible
11 May - 13:59:02 10° N 14:02:38 24° NE 14:06:15 10° ESE daylight
11 May - 15:40:30 10° WNW 15:44:03 23° SW 15:47:40 10° S daylight
